Weather History for New York, NY

Change the Weather History Date:

Saturday, November 10, 2012

  Actual Average Record
Temperature  
Mean Temperature 51 °F 50 °F  
Max Temperature 55 °F 57 °F 75 °F (1999)
Min Temperature 46 °F 44 °F 31 °F (1956)
Degree Days  
Heating Degree Days 14 15  
Month to date heating degree days 199 136  
Since 1 July heating degree days 381 408  
Cooling Degree Days 0 0  
Month to date cooling degree days 0 0  
Year to date cooling degree days 1511 1213  
Moisture  
Dew Point 40 °F    
Average Humidity 65    
Maximum Humidity 71    
Minimum Humidity 59    
Precipitation  
Precipitation 0.00 in 0.11 in 1.23 in (1990)
Month to date precipitation 0.88 1.11  
Year to date precipitation 31.94 38.87  
Snow  
Snow 0.00 in 0.00 in - ()
Month to date snowfall 1.1 0.0  
Since 1 July snowfall 1.1 0.0  
Snow Depth 0.00 in    
Sea Level Pressure  
Sea Level Pressure 30.31 in    
Wind  
Wind Speed 5 mph (WNW)    
Max Wind Speed 13 mph    
Max Gust Speed 16 mph    
Visibility 9 miles    
Events      
T = Trace of Precipitation, MM = Missing Value Source: NWS Daily Summary

Daily Weather History Graph

Daily Weather History Graph

Search for Another Location

Airport:

Trip Planner

Search our weather history database for the weather conditions in past years. The results will help you decide how hot, cold, wet, or windy it might be!

Date:

Astronomy

Nov. 10, 2012 Rise Set
Actual Time 6:37 AM EST 4:41 PM EST
Civil Twilight 6:08 AM EST 5:10 PM EST
Nautical Twilight 5:35 AM EST 5:43 PM EST
Astronomical Twilight 5:02 AM EST 6:15 PM EST
Moon 2:37 AM EST (11/10) 2:27 PM EST (11/10)
Length of Visible Light 11h 02m
Length of Day
10h 04m
Waning Crescent, 14% of the Moon is Illuminated
Nov 10
Waning Crescent
Nov 13
New
Nov 20
First Quarter
Nov 28
Full
Dec 6
Last Quarter

Hourly Weather History & Observations

Time (EST) Temp. Windchill Dew Point Humidity Pressure Visibility Wind Dir Wind Speed Gust Speed Precip Events Conditions
12:51 AM 48.0 °F - 35.1 °F 61% 30.20 in 10.0 mi West 6.9 mph - N/A   Scattered Clouds
1:51 AM 46.9 °F - 34.0 °F 61% 30.21 in 10.0 mi WNW 10.4 mph - N/A   Scattered Clouds
2:51 AM 46.9 °F - 35.1 °F 63% 30.22 in 10.0 mi WNW 9.2 mph - N/A   Scattered Clouds
3:51 AM 46.9 °F - 36.0 °F 66% 30.23 in 10.0 mi WNW 9.2 mph - N/A   Scattered Clouds
4:51 AM 46.0 °F 41.4 °F 36.0 °F 68% 30.24 in 10.0 mi WNW 9.2 mph - N/A   Scattered Clouds
5:51 AM 46.0 °F 41.4 °F 37.0 °F 71% 30.26 in 10.0 mi WNW 9.2 mph - N/A   Scattered Clouds
6:51 AM 46.4 °F 41.5 °F 37.4 °F 71% 30.29 in 9.0 mi WNW 10.4 mph - N/A   Mostly Cloudy
7:51 AM 46.9 °F - 37.9 °F 71% 30.32 in 8.0 mi WNW 4.6 mph - N/A   Mostly Cloudy
8:51 AM 48.0 °F - 39.0 °F 71% 30.32 in 8.0 mi WNW 6.9 mph - N/A   Mostly Cloudy
9:51 AM 50.0 °F - 39.9 °F 68% 30.32 in 6.0 mi NW 5.8 mph - N/A   Haze
10:51 AM 51.1 °F - 39.9 °F 66% 30.32 in 7.0 mi NNW 4.6 mph - N/A   Overcast
11:51 AM 53.1 °F - 39.9 °F 61% 30.31 in 7.0 mi Calm Calm - N/A   Overcast
12:51 PM 54.0 °F - 41.0 °F 62% 30.30 in 7.0 mi Calm Calm - N/A   Mostly Cloudy
1:51 PM 54.0 °F - 39.9 °F 59% 30.31 in 10.0 mi NW 3.5 mph - N/A   Mostly Cloudy
2:51 PM 54.0 °F - 43.0 °F 66% 30.32 in 8.0 mi NE 3.5 mph - N/A   Overcast
3:51 PM 54.0 °F - 44.1 °F 69% 30.32 in 8.0 mi Calm Calm - N/A   Overcast
4:51 PM 53.6 °F - 41.0 °F 62% 30.33 in 9.0 mi Calm Calm - N/A   Overcast
5:51 PM 53.6 °F - 42.8 °F 67% 30.36 in 8.0 mi Calm Calm - N/A   Overcast
6:51 PM 53.1 °F - 45.0 °F 74% 30.38 in 7.0 mi NNE 4.6 mph - N/A   Overcast
7:51 PM 53.1 °F - 43.0 °F 69% 30.38 in 9.0 mi East 4.6 mph - N/A   Overcast
8:51 PM 52.0 °F - 41.0 °F 66% 30.40 in 9.0 mi SSE 4.6 mph - N/A   Mostly Cloudy
9:51 PM 52.0 °F - 41.0 °F 66% 30.42 in 10.0 mi South 5.8 mph - N/A   Mostly Cloudy
10:51 PM 51.1 °F - 41.0 °F 68% 30.42 in 10.0 mi Calm Calm - N/A   Mostly Cloudy
11:51 PM 50.0 °F - 44.1 °F 80% 30.43 in 9.0 mi Calm Calm - N/A   Scattered Clouds